Location: NJAA Observatory
(40.6819°N, 74.8979°W)
Time: 08:32:53
(UTC-04:00)

Cosmos 1328 Rocket - Visible Passes

Search period start: 24 April 2018 00:00
Search period end: 04 May 2018 00:00
Orbit: 603 x 626 km, 82.5° (Epoch: 24 April)

Date Brightness Start Highest point End Pass type
(mag) Time Alt. Az. Time Alt. Az. Time Alt. Az.
24 Apr 6.5 21:41:32 10° WSW 21:44:28 17° WNW 21:47:25 10° NNW visible
25 Apr 3.5 20:17:56 10° S 20:22:19 76° E 20:26:47 10° N visible
26 Apr 4.3 20:33:53 10° SSW 20:38:14 58° W 20:42:38 10° N visible
27 Apr 5.6 20:50:16 10° SW 20:54:15 32° WNW 20:58:15 10° NNW visible
28 Apr 6.6 21:07:12 10° WSW 21:10:20 19° WNW 21:13:28 10° NNW visible
29 Apr 7.2 21:25:33 10° W 21:26:31 11° WNW 21:27:30 10° NW visible
02 May 6.6 20:32:54 10° WSW 20:36:12 20° WNW 20:39:31 10° NNW visible
03 May 7.2 20:50:49 10° W 20:52:22 12° WNW 20:53:56 10° NW visible
